The Dalles, WA

4:49 PM PDT on May 27, 2017 (GMT -0700)
Columbia Gorge Regional-The Dalles

Weather History for KDLS - December, 2011

Change the Weather History Date:

Wednesday, December 7, 2011

  Actual Average Record
Temperature  
Mean Temperature 35 °F -  
Max Temperature 44 °F 41 °F 60 °F (2015)
Min Temperature 26 °F 31 °F -4 °F (1972)
Degree Days  
Heating Degree Days 30    
Moisture  
Dew Point 25 °F    
Average Humidity 75    
Maximum Humidity 85    
Minimum Humidity 55    
Precipitation  
Precipitation 0.00 in - - ()
Sea Level Pressure  
Sea Level Pressure 30.42 in    
Wind  
Wind Speed 1 mph (ESE)    
Max Wind Speed 7 mph    
Max Gust Speed -    
Visibility 9 miles    
Events      
Averages and records for this station are not official NWS values.
T = Trace of Precipitation, MM = Missing Value Source: NWS Daily Summary

Daily Weather History Graph

Daily Weather History Graph

Search for Another Location

Airport or City:

Trip Planner

Search our weather history database for the weather conditions in past years. The results will help you decide how hot, cold, wet, or windy it might be!

Date:

Astronomy

Dec. 07, 2011 Rise Set
Actual Time 7:31 AM PST 4:20 PM PST
Civil Twilight 6:57 AM PST 4:54 PM PST
Nautical Twilight 6:19 AM PST 5:32 PM PST
Astronomical Twilight 5:43 AM PST 6:08 PM PST
Moon 2:27 PM PST (12/7) 4:48 AM PST (12/7)
Length of Visible Light 9h 57m
Length of Day
8h 49m
Waxing Gibbous, 93% of the Moon is Illuminated
Dec 7
Waxing Gibbous
Dec 10
Full
Dec 17
Last Quarter
Dec 24
New
Dec 31
First Quarter

Hourly Weather History & Observations

Time (PST) Temp. Windchill Dew Point Humidity Pressure Visibility Wind Dir Wind Speed Gust Speed Precip Events Conditions
12:53 AM 30.9 °F - 25.0 °F 79% 30.38 in 10.0 mi Calm Calm - N/A   Clear
2:53 AM 28.0 °F 21.7 °F 24.1 °F 85% 30.40 in 10.0 mi ESE 5.8 mph - N/A   Clear
4:53 AM 27.0 °F - 23.0 °F 85% 30.40 in 10.0 mi Calm Calm - N/A   Clear
5:53 AM 27.0 °F - 23.0 °F 85% 30.41 in 10.0 mi Calm Calm - N/A   Clear
6:53 AM 27.0 °F - 21.9 °F 81% 30.42 in 10.0 mi Calm Calm - N/A   Clear
7:53 AM 26.1 °F - 21.9 °F 84% 30.43 in 10.0 mi Calm Calm - N/A   Clear
8:53 AM 30.0 °F - 24.1 °F 79% 30.43 in 10.0 mi Calm Calm - N/A   Clear
9:53 AM 34.0 °F - 27.0 °F 75% 30.44 in 10.0 mi Calm Calm - N/A   Clear
10:53 AM 37.9 °F - 28.0 °F 68% 30.43 in 9.0 mi Calm Calm - N/A   Clear
11:53 AM 41.0 °F - 27.0 °F 57% 30.40 in 10.0 mi Calm Calm - N/A   Clear
12:53 PM 42.1 °F - 28.0 °F 58% 30.38 in 10.0 mi Calm Calm - N/A   Clear
1:53 PM 44.1 °F - 28.9 °F 55% 30.36 in 10.0 mi Calm Calm - N/A   Clear
2:53 PM 44.1 °F - 28.9 °F 55% 30.35 in 10.0 mi Calm Calm - N/A   Clear
3:53 PM 41.0 °F 39.0 °F 28.0 °F 60% 30.38 in 9.0 mi ENE 3.5 mph - N/A   Clear
5:53 PM 34.0 °F - 27.0 °F 75% 30.41 in 10.0 mi Calm Calm - N/A   Clear
6:53 PM 33.1 °F - 27.0 °F 78% 30.42 in 9.0 mi Calm Calm - N/A   Clear
7:53 PM 30.9 °F 24.3 °F 25.0 °F 79% 30.43 in 8.0 mi ESE 6.9 mph - N/A   Clear
8:53 PM 28.9 °F 25.2 °F 24.1 °F 82% 30.45 in 7.0 mi ESE 3.5 mph - N/A   Clear
9:53 PM 27.0 °F 23.0 °F 23.0 °F 85% 30.47 in 7.0 mi SE 3.5 mph - N/A   Clear
10:53 PM 26.1 °F 20.5 °F 21.9 °F 84% 30.48 in 7.0 mi East 4.6 mph - N/A   Clear
11:53 PM 26.1 °F 18.4 °F 21.9 °F 84% 30.49 in 7.0 mi ESE 6.9 mph - N/A   Clear